Location: ???????????
(54.5822°N, 39.1075°E)
Time: 08:03:21
(UTC+00:00)

Meteor 1-27 Rocket - Pass Details

Date: 19 May 2025
Orbit: 830 x 908 km, 81.3° (Epoch: 23 June)

Event Time Altitude Azimuth Distance (km) Brightness Sun altitude
Exits shadow 20:48:32 18° 205° (SSW) 1,989 5.1 -15.1°
Maximum altitude 20:52:50 70° 286° (WNW) 895 3.9 -15.2°
Drops below altitude 10° 20:58:23 10° 11° (N) 2,456 7.3 -15.3°
Sets 21:00:48 0° 14° (NNE) 3,390 8.3 -15.3°
